Location: Baia Mare
(47.6567°N, 23.5850°E)
Time: 13:07:26
(UTC+02:00)

ISS - Pass Details

Date: 08 January 2019
Orbit: 404 x 407 km, 51.6° (Epoch: 17 January)

Event Time Altitude Azimuth Distance (km) Brightness Sun altitude
Exits shadow 06:16:55 69° 317° (NW) 440 -3.9 -18.8°
Maximum altitude 06:17:14 81° 23° (NNE) 418 -3.9 -18.7°
Drops below altitude 10° 06:20:32 10° 111° (ESE) 1,467 0.3 -18.2°
Sets 06:22:37 0° 112° (ESE) 2,325 1.7 -17.8°
